COSMOS 2251 DEB, 35674

Orbit data source: Space-Track

COSMOS 2251 DEB, 35674 is space debris in LEO originally from a launch on Wed, 16 Jun 1993 UTC launched from the Plesetsk Missile And Space Complex (PKMTR). The debris from Iridium 33, an American commercial communications satellite, has been tracked extensively since its accidental collision with the defunct Russian satellite Cosmos 2251 in 2009. This event, occurring at high speed in low Earth orbit (LEO), generated thousands of pieces of space debris, significantly increasing the risk of further collisions. The Iridium 33 debris cloud has impacted space traffic management and orbital debris mitigation strategies, making it a subject of ongoing study in space situational awareness.

Loading next visibility...
Identifier
35674, 1993-036APR
Orbit
LEO
Country
Flag of CISCIS
Related business
Manufacturer
Unknown
Mission
Spacecraft
Bus & Motor
Unknown
Mass
Unknown
Launch date (UTC)
1993-06-16 (33 years ago)
Launch vehicle
Unknown
Launch site
Plesetsk Missile And Space Complex (PKMTR)
Object type
Payload
Rocket body
Debris
Shape & HBR
Unknown shape, 0.1 m
Radar Cross Section
Small (<0.1 m²)

Expand to show TLE details & history
Last TLE update: 19 hours ago

TLE from 19 hours ago
0 COSMOS 2251 DEB
1 35674U 93036APR 26121.79000222  .00007460  00000-0  16047-2 0  9997
2 35674  74.0599  51.6160 0091194  63.1287 297.9162 14.56071293881484
Epoch: 2026-05-01T18:57Z
TLE epoch observation values (Epoch: 2026-05-01T18:57:36.191Z)
Latitude
-0.00003°
Longitude
-92.50201°
Altitude
678.737 km
Speed
7.533 km/s
True Right ascension
03h 26m 27s
True Declination
0° 00' 00"
Sunlit
Object was in daylight at epoch
Visualization orbit readout
Latitude
Unknown
Longitude
Unknown
Altitude
Unknown
Speed
Unknown
Apparent Right ascension
Unknown
Apparent Declination
Unknown
Sunlit
N/A
Visualization observer readout
Local Sidereal Time
21:46:00
Azimuth
Unknown
Elevation
Unknown
Doppler factor
Unknown
Orbital elements
Apogee altitude
768.068 km
Perigee altitude
638.907 km
Semi-major axis
7,081.624 km
Eccentricity
0.00912
Inclination
74.0599°
RAAN
51.616°
Arg. of periapsis
63.1287°
True anomaly
296.98788°
Mean anomaly
297.9162°
Eccentric anomaly
297.45253°
Mean motion
3.64203 °/min
Orbital period
98.85 mins
BSTAR
0.0016047
Loading maneuver chart data...
Computing Atmospheric mass density...
Loading historical data...
Loading historical data...
Loading historical data...
Loading historical data...
Loading historical data...
Loading historical data...
Loading historical data...

Documentation

Showing up to 5 results
|